Location: Newark
(40.3500°N, 15.2333°E)
Time: 22:01:14
(UTC+00:00)

Altair - Pass Details

Date: 25 January 2020
Orbit: 1502 x 1682 km, 47.2° (Epoch: 19 February)

Event Time Altitude Azimuth Distance (km) Brightness Sun altitude
Rises 09:52:03 0° 270° (W) 4,911 9.9 27.8°
Reaches altitude 10° 09:55:18 10° 275° (W) 3,934 9.5 28.0°
Maximum altitude 10:05:19 60° 354° (N) 1,884 8.1 28.7°
Drops below altitude 10° 10:15:18 10° 73° (ENE) 3,916 9.7 29.2°
Sets 10:18:31 0° 78° (ENE) 4,887 10.2 29.4°
